Regional Weather Roundup
Issued by NWS

Home | Current Version | Previous Version | Text Only | Print | Product List | Glossary On
Versions: 1 2 3 4 5 6 7 8 9 10 11 12 13 14 15 16 17 18 19 20 21 22 23 24 25 26 27 28 29 30 31 32 33 34 35 36 37 38 39 40 41 42 43 44 45 46 47 48 49 50
000
ASUS44 KFWD 282315
RWRTX
NORTH TEXAS HOURLY WEATHER ROUNDUP
NATIONAL WEATHER SERVICE FORT WORTH TX
600 PM CDT FRI AUG 28 2015

NOTE: "FAIR" INDICATES FEW OR NO CLOUDS BELOW 12,000 FEET WITH NO
SIGNIFICANT WEATHER AND/OR OBSTRUCTIONS TO VISIBILITY.

TXZ118-119-290000-
DALLAS/FORT WORTH METROPLEX

CITY           SKY/WX    TMP DP  RH WIND       PRES   REMARKS
DFW AIRPORT    PTSUNNY   96  62  32 E14       29.90F HX  97
DALLAS LOVE    MOSUNNY   96  62  32 SE7       29.91S HX  97
FTW MEACHAM    SUNNY     97  61  30 SE13      29.90F HX  97
DAL-EXECUTIVE  SUNNY     94  62  34 SE14G21   29.91S HX  94
FTW-ALLIANCE   PTSUNNY   97  61  30 SE10G20   29.91S HX  97
FTW-NAS-JRB    PTSUNNY   96  60  30 SE12      29.91S HX  96
FTW-SPINKS     SUNNY     93  61  33 SE8       29.93F HX  93
ARLINGTON      SUNNY     97  60  29 SE8       29.91F HX  97
MESQUITE       SUNNY     93  61  33 SE9       29.93R HX  93
LANCASTER      SUNNY     94  60  31 SE8       29.93S HX  94
$$

TXZ091>094-102>105-117-120-121-131>134-290000-
NORTH CENTRAL TEXAS

CITY           SKY/WX    TMP DP  RH WIND       PRES   REMARKS
SHRMAN/DENISON MOSUNNY   95  65  36 S8        29.94S HX  97
GAINESVILLE    PTSUNNY   92  62  37 SE9       29.94S HX  92
BOWIE          CLOUDY    93  62  35 SE5       29.93S HX  93
BRIDGEPORT     PTSUNNY   95  64  35 SE5       29.92F HX  96
DECATUR        PTSUNNY   94  58  29 S7        29.93S HX  93
DENTON         MOSUNNY   94  63  35 SE10      29.91S HX  95
MCKINNEY       MOSUNNY   92  65  40 SE10      29.92F HX  94
GREENVILLE     SUNNY     90  59  35 SE9       29.94S
ROCKWALL       SUNNY     92  65  40 SE8       29.91F HX  95
TERRELL        SUNNY     91  65  41 SE10      29.94S HX  93
WAXAHACHIE     SUNNY     94  63  36 SE9       29.94S HX  95
CLEBURNE         N/A     95  59  30 SE13      29.94S HX  94
GRANBURY       SUNNY     96  60  30 E7        29.92S HX  96
$$

TXZ083>090-098>101-113>116-127>130-139>142-154-155-290000-
WESTERN NORTH TEXAS

CITY           SKY/WX    TMP DP  RH WIND       PRES   REMARKS
WICHITA FALLS  CLOUDY    91  66  43 SE10      29.91S HX  93
WF-KICKAPOO    CLOUDY    92  65  41 E7        29.92F HX  93
VERNON         CLOUDY    94  50  22 NE7       29.93R HX  91
ABILENE        MOSUNNY   98  50  19 S15       29.91F HX  95
ABILENE-DYESS  MOSUNNY  100  47  16 S9        29.90F HX  96
BRECKENRIDGE   PTSUNNY   96  57  26 SE12      29.91R HAZE    HX  94
GRAHAM         PTSUNNY   94  62  33 SE8       29.89S HX  95
MINERAL WELLS  MOSUNNY   92  65  40 SE8       29.90F HX  94
STEPHENVILLE   SUNNY     93  60  32 SE7       29.96F HX  93
COMANCHE       SUNNY     97  59  27 E13       29.93S HX  96
BROWNWOOD      LGT RAIN  93  59  31 E5        29.92S HX  92
COLEMAN        SUNNY     98  53  21 SE8       29.93S HX  96
BRADY          SUNNY     99  48  18 SE8       29.93S HX  95
$$

TXZ143>147-156>162-174-175-290000-
CENTRAL TEXAS

CITY           SKY/WX    TMP DP  RH WIND       PRES   REMARKS
WACO           SUNNY     95  58  28 SE10      29.92F HX  94
WACO-TSTC      SUNNY     93  59  31 SE5       29.92F HX  92
WACO-MCGREGOR  SUNNY     95  59  30 SE8       29.92F HX  94
HILLSBORO      SUNNY     94  58  29 E6        29.93S HX  93
CORSICANA      SUNNY     93  61  34 E8        29.94F HX  93
MEXIA          SUNNY     95  62  33 SE14G22   29.92S HX  95
HEARNE         SUNNY     94  63  35 SE7       29.93F HX  95
CAMERON        SUNNY     94  61  32 SE6       29.92S HX  94
TEMPLE         SUNNY     93  59  31 SE10      29.93S HX  92
KILLEEN        SUNNY     95  56  26 SE10      29.92F HX  93
KILLEEN-SKYLRK SUNNY     93  61  33 E12       29.92F HX  93
FORT HOOD      SUNNY     94  58  30 SE12      29.92S HX  93
GATESVILLE     SUNNY     97  57  26 SE5       29.95S HX  95
HAMILTON       SUNNY     96  54  24 SE12      29.95S HX  94
LAMPASAS       SUNNY     96  55  25 SE6       29.93S HX  94
$$

TXZ095>097-106>112-122>126-135>138-148>153-164>167-290000-
EAST TEXAS

CITY           SKY/WX    TMP DP  RH WIND       PRES   REMARKS
PARIS          PTSUNNY   88  59  37 S12       29.94F
SULPHUR SPRNGS MOSUNNY   91  60  35 E12       29.96S HX  90
MOUNT PLEASANT SUNNY     88  58  36 SE6       29.96S
GILMER         SUNNY     87  61  41 E6        29.96S
MINEOLA        SUNNY     90  59  35 S7        29.95F
TYLER          SUNNY     89  63  41 S8        29.95F HX  90
LONGVIEW       SUNNY     87  62  43 SE5       29.95F
MARSHALL       SUNNY     90  64  42 CALM      29.98S HX  91
ATHENS         SUNNY     88  63  42 E5        29.93F
PALESTINE      SUNNY     92  61  35 E5        29.95F HX  91
JACKSONVILLE   SUNNY     90  53  28 E5        29.98F
HENDERSON      SUNNY     87  60  40 E3        29.97S
CENTER         FAIR      90  60  36 CALM      29.95S
NACOGDOCHES    SUNNY     90  61  37 SE8       29.94F
LUFKIN         SUNNY     91  59  33 NE7       29.94F HX  90
$$

SUPPLEMENTAL OBSERVATIONS (CENTRAL)

CITY           SKY/WX    TMP DP  RH WIND       PRES   REMARKS
LAKE TEXOMA      N/A     93  63  36 S6          N/A  HX  94
PAT MAYSE LAKE   N/A     88  57  35 E8          N/A
GREENVILLE       N/A     90  61  37 S8          N/A
MCGREGOR         N/A     95  55  26 S9          N/A  HX  93
TEMPLE           N/A     93  55  27 S7          N/A  HX  91
$$

SUPPLEMENTAL OBSERVATIONS (WEST)

CITY           SKY/WX    TMP DP  RH WIND       PRES   REMARKS
POSSUM KINGDOM   N/A     95  59  30 SE10        N/A  HX  94
GRANBURY         N/A     97  61  30 SE10        N/A  HX  97
HAMBY            N/A     99  48  18 S12         N/A  HX  95
IVIE RESERVOIR   N/A     99  41  13 SE9         N/A  HX  94
COLORADO BEND    N/A     97  48  19 S8G16       N/A  HX  93
$$

SUPPLEMENTAL OBSERVATIONS (EAST)

CITY           SKY/WX    TMP DP  RH WIND       PRES   REMARKS
CLARKSVILLE      N/A     88  57  35 SE6         N/A
TEXARKANA        N/A    N/A N/A N/A SE3         N/A
LINDEN           N/A     88  57  35 E5          N/A
CADDO LAKE       N/A     90  63  40 CALM        N/A  HX  90
GILMER           N/A    N/A N/A N/A SE5         N/A
HENDERSON        N/A    N/A N/A N/A E6          N/A
LUFKIN           N/A     91  59  33 MISG        N/A  HX  90
N SABINE NF      N/A     91  57  31 MISG        N/A  HX  90
S SABINE NF      N/A     90  59  35 NE2         N/A
$$

SUPPLEMENTAL OBSERVATIONS ARE A COLLECTION OF AUTOMATED INSTRUMENTS
THAT ARE MAINTAINED BY A VARIETY OF FEDERAL AND STATE AGENCIES.
CERTAIN ELEMENTS...SUCH AS HUMIDITY VALUES AND SUSTAINED WIND
SPEEDS...MAY BE APPROXIMATED.




USA.gov is the U.S. government's official web portal to all federal, state and local government web resources and services.